PFY276 YSSY-YPMQ

Flight info

Callsign PFY276
Flight time N/A
Altitude 27000
Route WLM DCT PMQ
Aircraft PC24/M-SBDGIRWY/LB2

Departure

Time 2026-05-07 07:15
Airport Sydney Kingsford Smith International Airport (YSSY)

Arrival

Time N/A
Airport Port Macquarie Airport (YPMQ)
Time Latitude Longitude Altitude Speed Heading
2026-05-07 06:34 -33.93354 151.18786 27 ft 0 kts 324°
2026-05-07 07:06 -33.93351 151.18786 26 ft 1 kts 358°
2026-05-07 07:06 -33.93349 151.18795 26 ft 2 kts 117°
2026-05-07 07:06 -33.93369 151.18810 28 ft 6 kts 155°
2026-05-07 07:06 -33.93399 151.18838 26 ft 5 kts 110°
2026-05-07 07:07 -33.93412 151.18874 29 ft 4 kts 143°
2026-05-07 07:07 -33.93441 151.18872 28 ft 6 kts 206°
2026-05-07 07:07 -33.93477 151.18858 26 ft 5 kts 189°
2026-05-07 07:07 -33.93513 151.18850 26 ft 5 kts 191°
2026-05-07 07:08 -33.93527 151.18847 25 ft 0 kts 191°
2026-05-07 07:08 -33.93549 151.18843 26 ft 6 kts 188°
2026-05-07 07:08 -33.93585 151.18847 25 ft 7 kts 143°
2026-05-07 07:08 -33.93606 151.18901 25 ft 8 kts 121°
2026-05-07 07:09 -33.93650 151.18943 25 ft 8 kts 161°
2026-05-07 07:09 -33.93663 151.18947 23 ft 0 kts 165°
2026-05-07 07:13 -33.93707 151.18959 22 ft 11 kts 175°
2026-05-07 07:14 -33.93767 151.18919 21 ft 10 kts 242°
2026-05-07 07:14 -33.93785 151.18850 22 ft 8 kts 255°
2026-05-07 07:14 -33.93828 151.18667 23 ft 55 kts 254°
2026-05-07 07:14 -33.94017 151.17849 118 ft 139 kts 256°
2026-05-07 07:15 -33.94316 151.16550 783 ft 184 kts 256°
2026-05-07 07:15 -33.94662 151.15002 2275 ft 186 kts 255°
2026-05-07 07:15 -33.95052 151.13429 3653 ft 208 kts 254°
2026-05-07 07:15 -33.95463 151.11660 4593 ft 230 kts 253°
2026-05-07 07:16 -33.95829 151.09763 5001 ft 239 kts 260°
2026-05-07 07:16 -33.95465 151.07771 5198 ft 261 kts 297°
2026-05-07 07:16 -33.94221 151.06179 6608 ft 266 kts 318°
2026-05-07 07:16 -33.92409 151.05456 7856 ft 289 kts 351°
2026-05-07 07:17 -33.90365 151.05568 9041 ft 297 kts
2026-05-07 07:17 -33.88292 151.05843 10223 ft 303 kts
2026-05-07 07:17 -33.86193 151.06163 11501 ft 301 kts
2026-05-07 07:17 -33.84190 151.06490 12980 ft 300 kts
2026-05-07 07:18 -33.82026 151.06847 13611 ft 327 kts
2026-05-07 07:18 -33.79723 151.07408 14176 ft 350 kts 16°
2026-05-07 07:18 -33.77658 151.09037 15232 ft 361 kts 37°
2026-05-07 07:18 -33.76160 151.11529 16252 ft 379 kts 62°
2026-05-07 07:19 -33.75313 151.14568 17169 ft 388 kts 69°
2026-05-07 07:19 -33.74612 151.17743 18037 ft 396 kts 71°
2026-05-07 07:19 -33.73938 151.20976 18849 ft 402 kts 70°
2026-05-07 07:19 -33.73188 151.24243 19575 ft 408 kts 68°
2026-05-07 07:20 -33.72398 151.27538 20292 ft 415 kts 67°
2026-05-07 07:20 -33.71617 151.30909 20969 ft 422 kts 68°
2026-05-07 07:20 -33.70845 151.34333 21624 ft 428 kts 67°